Date,TemperatureHighF,TemperatureAvgF,TemperatureLowF,DewpointHighF,DewpointAvgF,DewpointLowF,HumidityHigh,HumidityAvg,HumidityLow,PressureMaxIn,PressureMinIn,WindSpeedMaxMPH,WindSpeedAvgMPH,GustSpeedMaxMPH,PrecipitationSumIn
2013-4-1,50,45,36,44,35,28,95,71,53,30.04,29.87,17,6,0,0.00
2013-4-2,47,36,28,29,18,9,79,51,26,30.24,30.04,10,4,0,0.00
2013-4-3,51,37,27,15,12,8,55,36,18,30.41,30.21,9,3,0,0.00
2013-4-4,37,32,29,32,19,6,97,65,31,30.40,30.09,3,0,0,0.00
2013-4-5,51,38,32,38,33,30,98,83,51,30.15,30.02,14,5,0,0.00
2013-4-6,57,47,38,33,30,26,70,53,38,30.28,30.12,12,2,0,0.00
2013-4-7,62,51,39,43,38,31,80,63,46,30.25,30.13,7,1,0,0.00
2013-4-8,70,58,49,48,43,39,71,60,44,30.19,30.06,5,1,0,0.00
2013-4-9,76,64,55,52,48,46,73,58,36,30.22,30.08,7,1,0,0.00
2013-4-10,79,67,59,54,52,50,75,59,37,30.12,29.95,11,2,0,0.00
2013-4-11,72,62,54,58,53,51,97,74,49,29.96,29.72,6,1,0,0.00
2013-4-12,64,56,46,60,49,32,99,79,36,29.87,29.62,15,6,0,0.00
2013-4-13,62,52,42,36,31,24,71,48,25,30.09,29.82,18,7,0,0.00
2013-4-14,68,57,48,46,35,27,79,45,28,30.13,30.00,6,1,0,0.00
2013-4-15,52,49,46,52,48,46,99,97,82,30.27,29.99,4,0,0,0.00
2013-4-16,70,58,51,59,54,51,99,88,63,30.33,30.21,3,0,0,0.00
2013-4-17,68,59,55,56,54,52,96,84,59,30.29,30.16,16,2,0,0.01
2013-4-18,68,60,56,58,55,53,97,84,61,30.20,29.98,5,1,0,0.00
2013-4-19,60,54,39,59,54,34,99,97,80,29.97,29.73,14,3,0,0.00
2013-4-20,52,40,30,32,26,21,79,58,36,30.38,29.89,20,8,0,0.00
2013-4-21,52,43,35,33,27,20,72,53,44,30.54,30.36,4,1,0,0.00
2013-4-22,55,42,30,36,29,22,93,62,34,30.52,30.34,5,1,0,0.00
2013-4-23,63,49,36,45,39,28,90,71,50,30.36,30.15,6,1,0,0.00
2013-4-24,65,55,46,53,48,44,94,80,58,30.15,30.01,11,2,0,0.00
2013-4-25,61,46,31,45,29,17,95,60,18,30.38,30.09,11,5,0,0.00
2013-4-26,60,49,37,35,30,26,67,50,33,30.48,30.34,11,2,0,0.00
2013-4-27,55,50,46,47,41,32,98,72,49,30.40,30.28,4,0,0,0.00
2013-4-28,49,46,44,48,46,44,99,99,98,30.29,30.10,3,0,0,0.00
2013-4-29,60,53,48,55,51,47,99,94,75,30.12,30.01,5,0,0,0.00
2013-4-30,66,56,51,57,52,50,99,88,66,30.24,30.03,3,0,0,0.00